www.pogodaiklimat.ru

Погода и климат >> Архив погоды >> Малайзия >> Ipoh


ПОГОДА в Ipoh

  • Прогноз погоды в Ipoh
  • Монитор погоды в Ipoh
  • Климат города

АРХИВ ПОГОДЫ в Ipoh

Время (UTC), дата Ветер
(напр.,м/с)
 
Видим.   Явления Облачность Т
(С)
Тd
(С)
f
(%)
Тe
(С)
Тes
(С)
Комфортность P
(гПа)
Po
(гПа)
Тmin
(С)
Tmax
(С)
R
(мм)
R24
(мм)
S
(см)
12 11.08 Ю 1 10 км мгла 9/1 900 м
[Cu med, cong Ac trans Ci sp]
+28.6 +23.7 75 +39 +39 очень
душно
1007.6 1002.9 +32.8
18 11.08 СВ 2 12 км мгла 9/3 900 м
[Sc Ac trans Ci sp]
+25.6 +22.2 82 +33 +33 очень
душно
1009.8 1005.1
00 12.08 СВ 1 13 км мгла 9/3 600 м
[Cu Sc Ac trans Ci sp]
+24.2 +21.7 86 +31 +31 очень
душно
1009.2 1004.5 +23.5
06 12.08 Ю 3 13 км мгла 8/3 600 м
[Cu med, cong Ac trans Ci sp]
+33.2 +20.6 48 +40 +48 очень
душно
1008.5 1003.8
12 12.08 ЮВ 1 12 км мгла 9/1 900 м
[Sc Ac trans Ci sp]
+29.7 +21.0 60 +37 +37 очень
душно
1007.6 1002.9 +34.2
18 12.08 СВ 2 10 км мгла 9/1 900 м
[Sc Ac trans Ci sp]
+24.9 +19.1 70 +30 +30 душно 1009.5 1004.7
00 13.08 СВ 3 12 км мгла 9/1 600 м
[Cu Sc Ac trans Ci sp]
+23.7 +20.2 81 +29 +30 душно 1010.2 1005.4 +22.6
06 13.08 ЮЗ 2 12 км мгла 9/3 600 м
[Cu hum Ac trans Ci sp]
+31.6 +21.2 54 +39 +48 очень
душно
1009.1 1004.4
12 13.08 ЮЗ 1 12 км мгла 9/1 900 м
[Sc Ac lent Ci sp]
+28.7 +21.9 67 +37 +37 очень
душно
1008.1 1003.4 +33.3
18 13.08 СВ 2 10 км мгла 9/1 900 м
[Sc Ac trans Ci sp]
+25.0 +20.7 77 +31 +31 очень
душно
1009.6 1004.9
00 14.08 СВ 2 10 км мгла 9/1 600 м
[Cu Sc Ac trans Ci sp]
+23.9 +20.4 81 +30 +30 очень
душно
1009.5 1004.7 +23.2
06 14.08 Ю 5 8000 м мгла 9/1 600 м
[Cu med, cong Ac lent Ci sp]
+32.9 +20.4 48 +40 +46 очень
душно
1007.7 1003.0
12 14.08 ЮЗ 1 6000 м мгла 9/1 900 м
[Sc Ac trans Ci sp]
+29.0 +21.9 66 +37 +37 очень
душно
1007.5 1002.8 +34.0
18 14.08 СВ 3 8000 м мгла 9/3 900 м
[Sc Ac lent Ci sp]
+26.2 +19.8 68 +32 +32 очень
душно
1009.7 1004.9
00 15.08 СВ 2 7000 м мгла 9/3 600 м
[Cu hum Ac lent Ci sp]
+24.9 +20.9 78 +31 +32 очень
душно
1009.7 1005.0 +23.9
06 15.08 ЮЗ 6 5000 м мгла 9/3 600 м
[Cu hum Ac trans Ci sp]
+33.5 +22.4 52 +43 +46 опасность
перегрева
1008.5 1003.8
12 15.08 ЮЗ 2 10 км мгла 9/1 900 м
[Sc Ac trans Ci sp]
+30.5 +22.3 62 +40 +40 очень
душно
1007.5 1002.8 +34.5
18 15.08 СВ 2 6000 м мгла 9/1 900 м
[Sc Ac trans Ci sp]
+25.9 +22.5 82 +34 +34 очень
душно
1009.3 1004.6
00 16.08 С 2 5000 м мгла 9/1 600 м
[Cu hum Ac trans Ci sp]
+25.6 +22.4 83 +34 +34 очень
душно
1009.5 1004.8 +24.9
06 16.08 Ю 2 8000 м мгла 9/5 500 м
[Cb cap Ac lent Ci sp]
+32.6 +22.6 56 +42 +49 опасность
перегрева
1007.9 1003.2
12 16.08 В 1 8000 м мгла {гроза, ливн. осадки} 9/1 900 м
[Sc Ac lent Ci sp]
+28.0 +23.7 77 +38 +38 очень
душно
1006.8 1002.1 +33.3 0.0
18 16.08 В 1 8000 м мгла 9/1 900 м
[Sc Ac trans Ci sp]
+25.2 +23.1 88 +34 +34 очень
душно
1008.1 1003.4
00 17.08 СВ 1 8000 м мгла 9/1 600 м
[Cu Sc Ac trans Ci sp]
+24.8 +21.9 84 +32 +32 очень
душно
1007.6 1002.9 +24.1 0.0
06 17.08 ЮЗ 2 12 км мгла 9/4 500 м
[Cb calv Ac lent Ci fib]
+32.9 +22.3 54 +42 +49 опасность
перегрева
1005.5 1000.8
12 17.08 Ю 2 10 км мгла 9/3 840 м
[Sc Ac trans Ci sp]
+30.4 +21.7 60 +39 +39 очень
душно
1005.4 1000.7 +35.3
18 17.08 В 2 10 км мгла 9/3 900 м
[Sc Ac lent Ci sp]
+26.9 +23.0 79 +36 +36 очень
душно
1007.5 1002.8
00 18.08 З 1 12 км слабый дождь {гроза} 10/3 300 м
[Sc Ac und Cs]
+23.4 +22.6 95 +32 +33 очень
душно
1008.9 1004.2 +23.2 6

 

Местоположение метеостанции Ipoh (Малайзия): широта 4.57 долгота 101.10 высота над уровнем моря 39 м.

В архиве по умолчанию представлена погода в Ipoh за последнюю неделю. Архивные данные за месяц целиком и за предыдущие месяцы, начиная с января 2011 года, Вы можете получить, выбрав интересующий диапазон дат из раскрывающегося списка и нажав кнопку "Ввод!".


*Определитесь, кто Вы:
робот инопланетянин человек

Внимание! Время в таблицах - всемирное. Для получения местного времени необходимо прибавить поправку, которая в Ipoh равна 7 ч.

Смотрите также архив погоды в соседних городах и на ближайших метеорологических станциях:

Погода в Cameron Highlands (Малайзия) (32 км)
Погода в Sitiawan (Малайзия) (59 км)
Погода в Penang (Малайзия) (124 км)
Погода в Butterworth Air Base (Малайзия) (128 км)
Погода в Kuala Lumpur (Малайзия) (169 км)
Погода в Alor Star (Малайзия) (197 км)
Погода в Kuala Lumpur Int Airport (Малайзия) (216 км)
Погода в Yala Agromet (Таиланд) (218 км)
Погода в Narathiwat (Таиланд) (220 км)
Погода в Kota Bharu (Малайзия) (221 км)

Пояснения к столбцам:

Ветер - указаны скорость ветра в м/с - средняя за 10 мин, порывы в срок и между сроками (в фигурных скобках) и направление, откуда дует ветер: С - северный, СВ - северо-восточный, В - восточный, ЮВ - юго-восточный, Ю - южный, ЮЗ - юго-западный, З - западный, СЗ - северо-западный.
Видимость - горизонтальная дальность видимости в метрах или километрах. При видимости от 1 до 10 км при отсутствии осадков обычно наблюдается дымка, при ухудшении видимости до 1 км и менее - туман. В сухую погоду видимость может ухудшаться дымом, пылью или мглою.
Явления - указаны атмосферные явления, наблюдавшиеся в срок или в последний час перед сроком; фигурными скобками обозначены явления, наблюдавшиеся между сроками (за 1-3 часа до срока); квадратными скобками обозначены град или гололедные отложения с указанием их диаметра в мм.
Облачность - указаны через наклонную черту общая и нижняя облачность в баллах и высота нижней границы облаков в метрах; квадратными скобками обозначены формы облаков: Ci - перистые, Cs - перисто-слоистые, Cc - перисто-кучевые, Ac - высококучевые, As - высокослоистые, Sc - слоисто-кучевые, Ns - слоисто-дождевые, Cu - кучевые, Cb - кучево-дождевые. Подробнее классификацию облаков см. в Атласе облаков (PDF).
T - Температура воздуха - температура, измеренная на высоте 2 м над землей.
Td - Температура точки росы - температура, при понижении до которой содержащийся в воздухе водяной пар достигнет насыщения.
f - Относительная влажность воздуха - влажноcть воздуха, измеренная на высоте 2 м над землей.
Te - Эффективная температура - температура, которую ощущает одетый по сезону человек в тени. Характеристика душности погоды. При расчете учитывается влияние влажности воздуха и скорости ветра на теплоощущения человека.
Tes - Эффективная температура на солнце - температура, которую ощущает человек, с поправкой на солнечный нагрев. Характеристика знойности погоды. Зависит от высоты солнца над горизонтом, облачности и скорости ветра. Ночью, в пасмурную погоду, а также при ветре 12 м/с и более поправка равна нулю.
P - Атмосферное давление - приведенное к уровню моря атмосферное давление.
Po - Атмосферное давление - измеренное на уровне метеостанции атмосферное давление.
Tmin - Минимальная температура - минимум температуры воздуха на высоте 2 м над землей.
Tmax - Максимальная температура - максимум температуры воздуха на высоте 2 м над землей.
R - Количество осадков - Количество выпавших осадков за период времени, мм. При наведении курсора мыши на число - период времени, за который выпало указанное количество осадков.
R24 - Количество осадков - Количество выпавших осадков за 24 часа, мм.
S - Снежный покров - Высота снежного покрова, см. При наведении курсора мыши на число - состояние снежного покрова и степень покрытия местности в баллах.